This is the latest recevied weather packets stored in our database for station/object N4QEP-13. If no packets are shown the sender has not sent any weather packets the latest 10 day(s).
| Time | Temp. | Humidity | Pressure | Rain* | Wind** | Luminosity | Snow |
|---|---|---|---|---|---|---|---|
| 1777730433 | 12.22° C | 82% | 1014.6 hPa | 0 mm | - | - | - |
| 1777729534 | 12.22° C | 82% | 1014.4 hPa | 0 mm | - | - | - |
| 1777728601 | 12.22° C | 82% | 1014.3 hPa | 0 mm | - | - | - |
| 1777727701 | 12.22° C | 82% | 1014.2 hPa | 0.76 mm | - | - | - |
| 1777726833 | 11.67° C | 82% | 1013.8 hPa | 0.76 mm | - | - | - |
| 1777725933 | 11.67° C | 82% | 1013.4 hPa | 0.76 mm | - | - | - |
| 1777725029 | 11.67° C | 82% | 1013.6 hPa | 1.52 mm | - | - | - |
| 1777724130 | 11.67° C | 82% | 1013.3 hPa | 1.52 mm | - | - | - |
| 1777723233 | 11.67° C | 82% | 1013.4 hPa | 1.52 mm | - | - | - |
| 1777722331 | 11.67° C | 82% | 1013.6 hPa | 1.52 mm | - | - | - |
| 1777721425 | 11.67° C | 82% | 1011.7 hPa | 1.02 mm | - | - | - |
| 1777720519 | 11.67° C | 82% | 1012.7 hPa | 1.52 mm | - | - | - |
| 1777719619 | 12.22° C | 82% | 1012.4 hPa | 3.05 mm | - | - | - |
| 1777718720 | 12.22° C | 82% | 1012.8 hPa | 3.05 mm | - | - | - |
| 1777717811 | 12.22° C | 82% | 1013.3 hPa | 3.05 mm | - | - | - |
| 1777716910 | 12.22° C | 82% | 1013.7 hPa | 1.78 mm | - | - | - |
| 1777716014 | 12.22° C | 82% | 1012.2 hPa | 0.51 mm | - | - | - |
| 1777715110 | 12.78° C | 82% | 1012.6 hPa | 1.78 mm | - | - | - |
| 1777714240 | 12.78° C | 82% | 1012.3 hPa | 4.57 mm | - | - | - |
| 1777713338 | 12.78° C | 82% | 1012 hPa | 6.35 mm | - | - | - |
| 1777712433 | 12.78° C | 82% | 1011.6 hPa | 6.6 mm | - | - | - |
| 1777711528 | 12.78° C | 82% | 1012.2 hPa | 5.84 mm | - | - | - |
| 1777710627 | 12.78° C | 82% | 1012.4 hPa | 3.56 mm | - | - | - |
| 1777709735 | 12.78° C | 82% | 1011.3 hPa | 2.79 mm | - | - | - |
| 1777708829 | 12.78° C | 82% | 1010.5 hPa | 4.32 mm | - | - | - |
* Rain latest hour (hover to see other rain measurements)
** Current wind speed in m/s (hover to see current wind gust speed)